GW5739 Weather Reports


time (UTC)temp
C
wind
direction
speed
KPH
gust
KPH
rain 1hr
cm
rain 24hr
cm
rain mn
cm
humidity
%
barometer
mb
20260507012554 13 183 0.0 3.2 0.00 0.00 0.00 79 1020.4
20260507012053 13 0 0.0 3.2 0.00 0.00 0.00 79 1020.5
20260507011558 13 196 0.0 3.2 0.00 0.00 0.00 79 1020.5
20260507011052 13 0 0.0 3.2 0.00 0.00 0.00 78 1020.5
20260507010552 14 219 0.0 3.2 0.00 0.00 0.00 78 1020.5
20260507010052 14 215 0.0 3.2 0.00 0.00 0.00 78 1020.6
20260507005553 14 0 0.0 3.2 0.00 0.00 0.00 78 1020.6
20260507005053 14 0 0.0 3.2 0.00 0.00 0.00 78 1020.6
20260507004554 14 0 0.0 3.2 0.00 0.00 0.00 77 1020.6
20260507004052 15 87 0.0 4.8 0.00 0.00 0.00 75 1020.5
20260507003553 15 195 1.6 6.4 0.00 0.00 0.00 74 1020.5
20260507003053 15 195 0.0 8.0 0.00 0.00 0.00 75 1020.6
20260507002552 14 118 3.2 8.0 0.00 0.00 0.00 74 1020.6
20260507002053 15 91 0.0 9.7 0.00 0.00 0.00 73 1020.6
20260507001553 15 293 1.6 12.9 0.00 0.00 0.00 75 1020.5
20260507001052 15 129 1.6 12.9 0.00 0.00 0.00 74 1020.5
20260507000552 14 185 3.2 9.7 0.00 0.00 0.00 75 1020.4
20260507000054 14 162 3.2 11.3 0.00 0.00 0.00 75 1020.5
20260506235552 14 162 4.8 11.3 0.00 0.00 0.00 75 1020.5
20260506235052 14 264 4.8 11.3 0.00 0.00 0.00 75 1020.6
20260506234617 14 182 3.2 12.9 0.00 0.00 0.00 75 1020.6
20260506234053 14 195 3.2 12.9 0.00 0.00 0.00 75 1020.5
20260506233552 15 130 0.0 8.0 0.00 0.00 0.00 76 1020.6
20260506233053 15 160 1.6 8.0 0.00 0.00 0.00 76 1020.6
20260506232556 15 266 1.6 11.3 0.00 0.00 0.00 76 1020.5
20260506232053 15 89 1.6 11.3 0.00 0.00 0.00 76 1020.5
20260506231556 15 300 3.2 11.3 0.00 0.00 0.00 77 1020.5
20260506231056 15 0 1.6 8.0 0.00 0.00 0.00 75 1020.5
20260506230555 15 119 1.6 11.3 0.00 0.00 0.00 75 1020.6
20260506230058 15 226 0.0 12.9 0.00 0.00 0.00 76 1020.5
20260506225555 15 167 3.2 12.9 0.00 0.00 0.00 75 1020.5
20260506225052 15 134 3.2 17.7 0.00 0.00 0.00 75 1020.6
20260506224557 15 190 3.2 17.7 0.00 0.00 0.00 76 1020.6
20260506224052 15 60 6.4 12.9 0.00 0.00 0.00 74 1020.5
20260506223555 15 0 1.6 11.3 0.00 0.00 0.00 75 1020.6
20260506223100 15 94 3.2 12.9 0.00 0.00 0.00 75 1020.6
20260506222552 15 127 4.8 12.9 0.00 0.00 0.00 76 1020.7
20260506222052 15 195 3.2 12.9 0.00 0.00 0.00 76 1020.8
20260506221557 15 0 0.0 6.4 0.00 0.00 0.00 77 1020.8
20260506221053 15 50 1.6 6.4 0.00 0.00 0.00 76 1020.8
20260506220553 15 134 0.0 6.4 0.00 0.00 0.00 76 1020.9
20260506220055 15 148 1.6 6.4 0.00 0.00 0.00 78 1021.0
20260506215553 15 210 1.6 8.0 0.00 0.00 0.00 77 1020.9
20260506215052 15 321 1.6 8.0 0.00 0.00 0.00 76 1020.8
20260506214555 15 292 1.6 9.7 0.00 0.00 0.00 77 1020.7
20260506214053 15 310 1.6 12.9 0.00 0.00 0.00 77 1020.7
20260506213555 15 185 3.2 12.9 0.00 0.00 0.00 76 1020.7
20260506213058 15 82 3.2 12.9 0.00 0.00 0.00 76 1020.8
20260506212554 15 280 1.6 9.7 0.00 0.00 0.00 76 1020.8
20260506212054 15 121 1.6 8.0 0.00 0.00 0.00 76 1020.8
20260506211558 15 182 1.6 11.3 0.00 0.00 0.00 78 1020.9
20260506211052 15 277 3.2 14.5 0.00 0.00 0.00 78 1020.9
20260506210552 15 134 4.8 14.5 0.00 0.00 0.00 78 1020.9
20260506210104 15 316 3.2 12.9 0.00 0.00 0.00 79 1020.8
20260506205552 15 127 1.6 9.7 0.00 0.00 0.00 80 1020.8
20260506205053 14 202 3.2 9.7 0.00 0.00 0.00 81 1020.8
20260506204559 14 148 0.0 11.3 0.00 0.00 0.00 82 1020.8
20260506204052 14 98 0.0 11.3 0.00 0.00 0.00 82 1020.7
20260506203552 14 110 0.0 8.0 0.00 0.00 0.00 83 1020.8
20260506203056 13 188 1.6 8.0 0.00 0.00 0.00 83 1020.8
20260506202556 13 0 1.6 4.8 0.00 0.00 0.00 84 1020.7
20260506202055 14 114 0.0 8.0 0.00 0.00 0.00 84 1020.7
20260506201559 13 0 1.6 8.0 0.00 0.00 0.00 84 1020.7
20260506201052 13 122 0.0 4.8 0.00 0.00 0.00 85 1020.8
20260506200556 13 199 0.0 4.8 0.00 0.00 0.00 84 1020.8
20260506200108 13 0 0.0 6.4 0.00 0.00 0.00 86 1020.8
20260506195556 13 189 1.6 6.4 0.00 0.00 0.00 85 1020.8
20260506195053 13 0 1.6 4.8 0.00 0.00 0.00 86 1020.8
20260506194614 13 130 1.6 6.4 0.00 0.00 0.00 85 1020.8
20260506194053 13 0 0.0 6.4 0.00 0.00 0.00 86 1020.6
20260506193552 13 207 1.6 8.0 0.00 0.00 0.00 85 1020.6
20260506193053 13 0 1.6 8.0 0.00 0.00 0.00 85 1020.7
20260506192552 13 85 1.6 8.0 0.00 0.00 0.00 85 1020.6
20260506192056 13 0 1.6 8.0 0.00 0.00 0.00 86 1020.6
20260506191553 13 217 1.6 8.0 0.00 0.00 0.00 86 1020.6
20260506191055 13 107 1.6 6.4 0.00 0.00 0.00 86 1020.5
20260506190553 13 224 1.6 6.4 0.00 0.00 0.00 87 1020.6
20260506190055 13 0 0.0 9.7 0.00 0.00 0.00 87 1020.6
20260506185552 13 194 1.6 9.7 0.00 0.00 0.00 86 1020.4
20260506185056 13 87 4.8 9.7 0.00 0.00 0.00 85 1020.4
20260506184602 13 82 0.0 6.4 0.00 0.00 0.00 86 1020.5
20260506184109 13 173 1.6 9.7 0.00 0.00 0.00 86 1020.5
20260506183556 13 200 3.2 9.7 0.00 0.00 0.00 87 1020.5
20260506183103 13 133 3.2 6.4 0.00 0.00 0.00 87 1020.3
20260506182552 12 198 0.0 8.0 0.00 0.00 0.00 89 1020.4
20260506182052 12 0 1.6 8.0 0.00 0.00 0.00 88 1020.3
20260506181559 12 124 3.2 8.0 0.00 0.00 0.00 88 1020.2
20260506181053 12 152 0.0 4.8 0.00 0.00 0.00 88 1020.3
20260506180555 12 0 1.6 6.4 0.00 0.00 0.00 88 1020.4
20260506180104 12 120 1.6 6.4 0.00 0.00 0.00 88 1020.2
20260506175552 12 145 1.6 6.4 0.00 0.00 0.00 87 1020.2
20260506175052 12 125 0.0 4.8 0.00 0.00 0.00 87 1020.3
20260506174602 12 89 0.0 6.4 0.00 0.00 0.00 87 1020.2
20260506174053 12 103 0.0 6.4 0.00 0.00 0.00 88 1020.0
20260506173556 12 224 1.6 6.4 0.00 0.00 0.00 88 1019.9
20260506173112 12 141 0.0 3.2 0.00 0.00 0.00 88 1019.8
20260506172554 12 134 0.0 3.2 0.00 0.00 0.00 89 1019.9
20260506172053 12 0 0.0 4.8 0.00 0.00 0.00 89 1020.0
20260506171601 12 141 1.6 4.8 0.00 0.00 0.00 88 1020.0
20260506171053 12 127 0.0 3.2 0.00 0.00 0.00 89 1020.1
20260506170553 12 0 0.0 3.2 0.00 0.00 0.00 89 1020.2
20260506170056 12 0 0.0 4.8 0.00 0.00 0.00 89 1020.1
20260506165553 12 124 0.0 4.8 0.00 0.00 0.00 90 1020.0
20260506165053 12 130 0.0 3.2 0.00 0.00 0.00 90 1020.0
20260506164601 12 141 0.0 3.2 0.00 0.00 0.00 90 1020.1
20260506164053 12 208 0.0 3.2 0.00 0.00 0.00 90 1020.2
20260506163553 12 0 0.0 3.2 0.00 0.00 0.00 91 1020.1
20260506163057 12 0 0.0 1.6 0.00 0.00 0.00 91 1020.2
20260506162553 12 181 0.0 1.6 0.00 0.00 0.00 92 1020.1
20260506162056 12 0 0.0 1.6 0.00 0.00 0.00 92 1020.0
20260506161605 11 0 0.0 1.6 0.00 0.00 0.00 92 1019.9
20260506161053 11 0 0.0 1.6 0.00 0.00 0.00 92 1019.9
20260506160553 11 0 0.0 0.0 0.00 0.00 0.00 92 1019.9
20260506160057 11 0 0.0 0.0 0.00 0.00 0.00 92 1020.0
20260506155552 11 0 0.0 0.0 0.00 0.00 0.00 93 1019.9
20260506155055 11 0 0.0 3.2 0.00 0.00 0.00 93 1019.8
20260506154557 11 0 0.0 3.2 0.00 0.00 0.00 93 1019.7
20260506154053 11 185 0.0 1.6 0.00 0.00 0.00 93 1019.6
20260506153554 11 0 0.0 1.6 0.00 0.00 0.00 93 1019.6
20260506153058 11 0 0.0 1.6 0.00 0.00 0.00 93 1019.7
20260506152552 11 0 0.0 4.8 0.00 0.00 0.00 93 1019.7
20260506152052 11 0 0.0 4.8 0.00 0.00 0.00 92 1019.7
20260506151607 11 148 1.6 4.8 0.00 0.00 0.00 92 1019.7
20260506151052 11 136 0.0 1.6 0.00 0.00 0.00 92 1019.8
20260506150553 11 0 0.0 3.2 0.00 0.00 0.00 92 1019.9
20260506150054 11 0 1.6 4.8 0.00 0.00 0.00 92 1020.0
20260506145553 11 0 0.0 4.8 0.00 0.00 0.00 92 1019.9
20260506145053 11 101 1.6 8.0 0.00 0.00 0.00 92 1019.7
20260506144557 11 124 3.2 8.0 0.00 0.00 0.00 92 1019.6
20260506144053 11 0 0.0 3.2 0.00 0.00 0.00 92 1019.6
20260506143553 11 0 0.0 3.2 0.00 0.00 0.00 92 1019.6
20260506143055 11 136 0.0 3.2 0.00 0.00 0.00 92 1019.6
20260506142553 11 0 0.0 0.0 0.00 0.00 0.00 93 1019.7
20260506142052 11 0 0.0 0.0 0.00 0.00 0.00 93 1019.6
20260506141552 11 0 0.0 0.0 0.00 0.00 0.00 93 1019.6
20260506141052 11 0 0.0 0.0 0.00 0.00 0.00 93 1019.5
20260506140555 11 0 0.0 0.0 0.00 0.00 0.00 93 1019.5
20260506140104 11 0 0.0 0.0 0.00 0.00 0.00 93 1019.5
20260506135554 11 0 0.0 1.6 0.00 0.00 0.00 94 1019.5
20260506135052 11 0 0.0 1.6 0.00 0.00 0.00 94 1019.4
20260506134553 11 0 0.0 1.6 0.00 0.00 0.00 94 1019.6
20260506134053 11 0 0.0 0.0 0.00 0.00 0.00 94 1019.6
20260506133554 11 0 0.0 0.0 0.00 0.00 0.00 94 1019.5
20260506133058 11 0 0.0 0.0 0.00 0.00 0.00 94 1019.6
20260506132553 11 0 0.0 0.0 0.00 0.00 0.00 94 1019.6
20260506132053 11 0 0.0 0.0 0.00 0.00 0.00 94 1019.4
20260506131600 11 0 0.0 0.0 0.00 0.00 0.00 94 1019.5
20260506131053 11 0 0.0 0.0 0.00 0.00 0.00 94 1019.5
20260506130553 11 0 0.0 0.0 0.00 0.00 0.00 94 1019.3
20260506130118 11 0 0.0 0.0 0.00 0.00 0.00 94 1019.3
20260506125555 11 0 0.0 0.0 0.00 0.00 0.00 94 1019.1
20260506125053 11 0 0.0 0.0 0.00 0.00 0.00 95 1019.1
20260506124553 11 0 0.0 0.0 0.00 0.00 0.00 94 1019.1
20260506124053 11 0 0.0 0.0 0.00 0.00 0.00 95 1018.9
20260506123556 11 0 0.0 0.0 0.00 0.00 0.00 95 1018.9
20260506123054 11 0 0.0 0.0 0.00 0.00 0.00 95 1018.9
20260506122553 11 0 0.0 0.0 0.00 0.00 0.00 95 1019.0
20260506122053 11 0 0.0 0.0 0.00 0.00 0.00 95 1018.9
20260506121553 11 0 0.0 0.0 0.00 0.00 0.00 95 1019.0
20260506121053 11 0 0.0 1.6 0.00 0.00 0.00 95 1018.9
20260506120553 11 0 0.0 3.2 0.00 0.00 0.00 95 1019.0
20260506115553 11 0 0.0 1.6 0.00 0.00 0.00 95 1018.9
20260506115052 11 0 0.0 1.6 0.00 0.00 0.00 95 1018.8
20260506114602 11 0 0.0 1.6 0.00 0.00 0.00 95 1018.8
20260506114052 11 0 0.0 0.0 0.00 0.00 0.00 95 1018.8
20260506113553 11 0 0.0 1.6 0.00 0.00 0.00 95 1018.8
20260506113106 11 0 0.0 1.6 0.00 0.00 0.00 95 1018.7
20260506112554 11 0 0.0 1.6 0.00 0.00 0.00 95 1018.7
20260506112054 10 0 0.0 0.0 0.00 0.00 0.00 95 1018.7
20260506111555 10 0 0.0 0.0 0.00 0.00 0.00 95 1018.6
20260506111053 10 0 0.0 0.0 0.00 0.00 0.00 95 1018.5
20260506110553 10 0 0.0 0.0 0.00 0.00 0.00 95 1018.4
20260506110103 10 0 0.0 0.0 0.00 0.00 0.00 95 1018.3
20260506105554 10 0 0.0 0.0 0.00 0.00 0.00 95 1018.3
20260506105053 10 0 0.0 0.0 0.00 0.00 0.00 95 1018.3
20260506104616 10 0 0.0 0.0 0.00 0.00 0.00 95 1018.3
20260506104053 10 0 0.0 0.0 0.00 0.00 0.00 95 1018.2
20260506103554 10 0 0.0 0.0 0.00 0.00 0.00 95 1018.1
20260506103056 10 0 0.0 0.0 0.00 0.00 0.00 95 1018.1
20260506102555 10 0 0.0 0.0 0.00 0.00 0.00 95 1018.1
20260506102054 10 0 0.0 0.0 0.00 0.00 0.00 95 1018.1
20260506101605 9 0 0.0 0.0 0.00 0.00 0.00 95 1018.1
20260506101053 9 0 0.0 0.0 0.00 0.00 0.00 95 1018.0
20260506100557 9 0 0.0 0.0 0.00 0.00 0.00 95 1017.9
20260506100057 9 0 0.0 0.0 0.00 0.00 0.00 95 1017.8
20260506095556 9 0 0.0 0.0 0.00 0.00 0.00 95 1017.8
20260506095053 9 0 0.0 0.0 0.00 0.00 0.00 95 1017.8
20260506094559 8 0 0.0 0.0 0.00 0.00 0.00 94 1017.7
20260506094052 8 0 0.0 0.0 0.00 0.00 0.00 94 1017.7
20260506093554 8 0 0.0 0.0 0.00 0.00 0.00 94 1017.7
20260506093057 8 0 0.0 0.0 0.00 0.00 0.00 94 1017.7
20260506092554 8 0 0.0 0.0 0.00 0.00 0.00 94 1017.8
20260506092055 8 0 0.0 0.0 0.00 0.00 0.00 94 1017.7
20260506091554 9 0 0.0 0.0 0.00 0.00 0.00 94 1017.7
20260506091055 9 0 0.0 0.0 0.00 0.00 0.00 94 1017.7
20260506090557 9 0 0.0 0.0 0.00 0.00 0.00 95 1017.7
20260506090051 9 0 0.0 0.0 0.00 0.00 0.00 94 1017.7
20260506085553 9 0 0.0 0.0 0.00 0.00 0.00 94 1017.7
20260506085053 9 0 0.0 0.0 0.00 0.00 0.00 94 1017.5
20260506084553 9 0 0.0 0.0 0.00 0.00 0.00 94 1017.5
20260506084054 9 0 0.0 0.0 0.00 0.00 0.00 94 1017.4
20260506083552 9 0 0.0 0.0 0.00 0.00 0.00 94 1017.3
20260506083054 9 0 0.0 0.0 0.00 0.00 0.00 94 1017.4
20260506082558 9 0 0.0 0.0 0.00 0.00 0.00 95 1017.5
20260506082055 9 0 0.0 0.0 0.00 0.00 0.00 94 1017.3
20260506081552 9 0 0.0 0.0 0.00 0.00 0.00 94 1017.3
20260506081053 9 0 0.0 0.0 0.00 0.00 0.00 94 1017.3
20260506080554 9 0 0.0 0.0 0.00 0.00 0.00 94 1017.2
20260506073100 10 0 0.0 0.0 0.00 0.00 0.00 94 1016.9
20260506072553 10 0 0.0 0.0 0.00 0.00 0.00 93 1017.0
20260506072057 10 0 0.0 0.0 0.00 0.00 0.00 93 1017.0
20260506071609 10 0 0.0 0.0 0.00 0.00 0.00 93 1017.0
20260506071056 10 0 0.0 0.0 0.00 0.00 0.00 93 1016.9
20260506070553 10 0 0.0 0.0 0.00 0.00 0.00 93 1016.9
20260506070103 10 0 0.0 0.0 0.00 0.00 0.00 93 1016.8
20260506062053 10 0 0.0 0.0 0.00 0.00 0.00 93 1016.7
20260506061554 10 0 0.0 0.0 0.00 0.00 0.00 92 1016.7
20260506061053 10 0 0.0 0.0 0.00 0.00 0.00 93 1016.6
20260506060557 10 0 0.0 0.0 0.00 0.00 0.00 93 1016.6
20260506051056 11 0 0.0 0.0 0.00 0.00 0.00 92 1016.0
20260506050554 11 0 0.0 0.0 0.00 0.00 0.00 92 1015.9
20260506045054 11 0 0.0 0.0 0.00 0.00 0.00 91 1015.9
20260506044559 11 0 0.0 0.0 0.00 0.00 0.00 91 1015.9
20260506044053 11 0 0.0 0.0 0.00 0.00 0.00 90 1015.9
20260506043553 11 0 0.0 0.0 0.00 0.00 0.00 90 1015.9
20260506043054 11 0 0.0 0.0 0.00 0.00 0.00 90 1015.8
20260506042553 11 0 0.0 0.0 0.00 0.00 0.00 89 1015.7
20260506042052 12 0 0.0 0.0 0.00 0.00 0.00 89 1015.6
20260506041603 12 0 0.0 0.0 0.00 0.00 0.00 89 1015.6
20260506041053 12 0 0.0 0.0 0.00 0.00 0.00 88 1015.6
20260506040553 12 0 0.0 0.0 0.00 0.00 0.00 88 1015.5
20260506040055 12 0 0.0 0.0 0.00 0.00 0.00 88 1015.5
20260506035553 13 0 0.0 0.0 0.00 0.00 0.00 87 1015.5
20260506035053 13 0 0.0 0.0 0.00 0.00 0.00 87 1015.5
20260506034555 13 0 0.0 0.0 0.00 0.00 0.00 87 1015.5
20260506034053 13 0 0.0 0.0 0.00 0.00 0.00 86 1015.4
20260506033556 13 0 0.0 0.0 0.00 0.00 0.00 86 1015.5
20260506033110 13 0 0.0 0.0 0.00 0.00 0.00 85 1015.3
20260506032554 13 0 0.0 0.0 0.00 0.00 0.00 85 1015.4
20260506032054 14 0 0.0 0.0 0.00 0.00 0.00 85 1015.3
20260506031556 14 0 0.0 0.0 0.00 0.00 0.00 85 1015.3
20260506031056 15 0 0.0 0.0 0.00 0.00 0.00 85 1015.3
20260506030557 15 0 0.0 0.0 0.00 0.00 0.00 84 1015.2
20260506030053 15 0 0.0 0.0 0.00 0.00 0.00 83 1015.2
20260506025553 15 0 0.0 0.0 0.00 0.00 0.00 83 1015.2
20260506025053 16 0 0.0 0.0 0.00 0.00 0.00 82 1015.3
20260506024631 16 0 0.0 0.0 0.00 0.00 0.00 81 1015.2
20260506024053 16 0 0.0 0.0 0.00 0.00 0.00 81 1015.2
20260506023554 16 0 0.0 0.0 0.00 0.00 0.00 79 1015.2
20260506023100 17 0 0.0 0.0 0.00 0.00 0.00 78 1015.1
20260506022554 17 0 0.0 0.0 0.00 0.00 0.00 78 1015.1
20260506022054 17 0 0.0 1.6 0.00 0.00 0.00 76 1015.2
20260506021557 17 0 0.0 3.2 0.00 0.00 0.00 75 1015.2
20260506021056 17 126 0.0 3.2 0.00 0.00 0.00 75 1015.2
20260506020553 16 0 1.6 3.2 0.00 0.00 0.00 75 1015.2
20260506020051 16 0 0.0 3.2 0.00 0.00 0.00 76 1015.2
20260506015559 16 160 1.6 3.2 0.00 0.00 0.00 76 1015.2
20260506015054 16 105 0.0 3.2 0.00 0.00 0.00 76 1015.2
20260506014557 17 203 1.6 6.4 0.00 0.00 0.00 75 1015.2
20260506014056 17 193 0.0 6.4 0.00 0.00 0.00 75 1015.2
20260506013553 17 101 1.6 6.4 0.00 0.00 0.00 76 1015.2
20260506013053 17 0 0.0 3.2 0.00 0.00 0.00 76 1015.1